User: anonymous   Login
Location: Unspecified
(38.7273°N, 77.0677°W)
Time: 08:25:35
(UTC-04:00)
Language:

STARS - Orbit

View from above orbital plane
View from above orbital plane
View from above satellite
View from above satellite

Ground track
Ground track

The orbit data is extracted from the following two-line orbital elements,

1 33498U 09002G   21267.14668956  .00000355  00000-0  54996-4 0  9991
2 33498  98.1981 149.2591 0011726  34.5705 325.6265 14.79421736682477
Epoch (UTC): 24 September 2021 03:31:13
Eccentricity: 0.0011726
inclination: 98.1981°
perigee height: 623 km
apogee height: 639 km
right ascension of ascending node: 149.2591°
argument of perigee: 34.5705°
revolutions per day: 14.79421736
mean anomaly at epoch: 325.6265°
orbit number at epoch: 68247

The dashed part of the orbit path shows where the satellite is in the earth's shadow,  

DLR